This is the latest recevied weather packets stored in our database for station/object DL1BWU. If no packets are shown the sender has not sent any weather packets the latest 1 day(s).
| Time | Temp. | Humidity | Pressure | Rain* | Wind** | Luminosity | Snow |
|---|---|---|---|---|---|---|---|
| 1778066706 | 11.11° C | 71% | 1006.1 hPa | 0.51 mm | - | - | - |
| 1778066106 | 11.11° C | 71% | 1006.1 hPa | 1.52 mm | - | - | - |
| 1778065506 | 11.11° C | 71% | 1006.2 hPa | 1.52 mm | - | - | - |
| 1778064906 | 11.11° C | 71% | 1005.9 hPa | 1.52 mm | - | - | - |
| 1778064306 | 11.11° C | 70% | 1005.8 hPa | 1.02 mm | - | - | - |
| 1778063706 | 11.11° C | 70% | 1005.7 hPa | 1.02 mm | - | - | - |
| 1778063106 | 11.11° C | 70% | 1005.8 hPa | 0.51 mm | - | - | - |
| 1778062506 | 11.11° C | 70% | 1005.6 hPa | 1.02 mm | - | - | - |
| 1778061306 | 10.56° C | 70% | 1005.4 hPa | 2.54 mm | - | - | - |
| 1778060706 | 10.56° C | 70% | 1005.4 hPa | 3.05 mm | - | - | - |
| 1778059506 | 10.56° C | 71% | 1005 hPa | 3.56 mm | - | - | - |
| 1778058906 | 10.56° C | 71% | 1005 hPa | 4.06 mm | - | - | - |
| 1778058306 | 10.56° C | 71% | 1005 hPa | 3.05 mm | - | - | - |
| 1778057706 | 10.56° C | 71% | 1005 hPa | 2.54 mm | - | - | - |
| 1778057106 | 10.56° C | 71% | 1005.2 hPa | 2.54 mm | - | - | - |
| 1778056506 | 10.56° C | 71% | 1005.1 hPa | 2.03 mm | - | - | - |
| 1778052306 | 10° C | 71% | 1004.8 hPa | 1.02 mm | - | - | - |
| 1778050506 | 10° C | 71% | 1004.6 hPa | 1.52 mm | - | - | - |
| 1778048707 | 10.56° C | 71% | 1004.8 hPa | 1.02 mm | - | - | - |
| 1778043306 | 10° C | 71% | 1005.2 hPa | 2.03 mm | - | - | - |
| 1778039707 | 10.56° C | 71% | 1005.4 hPa | 4.06 mm | - | - | - |
| 1778038507 | 10.56° C | 71% | 1005.4 hPa | 4.57 mm | - | - | - |
| 1778037907 | 10.56° C | 71% | 1005.5 hPa | 4.06 mm | - | - | - |
| 1778037307 | 10.56° C | 71% | 1005.8 hPa | 4.06 mm | - | - | - |
| 1778036707 | 10.56° C | 71% | 1005.8 hPa | 2.54 mm | - | - | - |
* Rain latest hour (hover to see other rain measurements)
** Current wind speed in m/s (hover to see current wind gust speed)